Time,TemperatureF,DewpointF,PressureIn,WindDirection,WindDirectionDegrees,WindSpeedMPH,WindSpeedGustMPH,Humidity,HourlyPrecipIn,Conditions,Clouds,dailyrainin,SoftwareType,DateUTC
2013-11-12 00:01:00,49.6,44.9,30.17,North,0,0.0,0.0,84,0.00,,,0.00,WUHU21623XXSP,2013-11-12 06:01:00,
2013-11-12 00:06:00,49.5,44.8,30.18,North,0,0.0,0.0,84,0.00,,,0.00,WUHU21623XXSP,2013-11-12 06:06:00,
2013-11-12 00:11:00,49.3,44.6,30.18,North,0,0.0,0.0,84,0.00,,,0.00,WUHU21623XXSP,2013-11-12 06:11:00,
2013-11-12 00:16:00,49.3,44.6,30.18,North,0,0.0,0.0,84,0.00,,,0.00,WUHU21623XXSP,2013-11-12 06:16:00,
2013-11-12 00:21:00,49.1,44.6,30.18,North,0,0.0,0.0,84,0.00,,,0.00,WUHU21623XXSP,2013-11-12 06:21:00,
2013-11-12 00:26:00,49.1,44.4,30.18,North,0,0.0,0.0,84,0.00,,,0.00,WUHU21623XXSP,2013-11-12 06:26:00,
2013-11-12 00:31:00,48.9,44.4,30.17,North,0,0.0,0.0,84,0.00,,,0.00,WUHU21623XXSP,2013-11-12 06:31:00,
2013-11-12 00:36:00,48.9,44.2,30.18,North,0,0.0,0.0,84,0.00,,,0.00,WUHU21623XXSP,2013-11-12 06:36:00,
2013-11-12 00:41:00,48.9,44.6,30.17,North,0,0.0,0.0,85,0.00,,,0.00,WUHU21623XXSP,2013-11-12 06:41:00,
2013-11-12 00:46:00,48.7,44.4,30.17,North,0,0.0,0.0,85,0.00,,,0.00,WUHU21623XXSP,2013-11-12 06:46:00,
2013-11-12 00:51:00,48.7,44.4,30.17,North,0,0.0,0.0,85,0.00,,,0.00,WUHU21623XXSP,2013-11-12 06:51:00,
2013-11-12 00:56:00,48.6,44.2,30.17,North,0,0.0,0.0,85,0.00,,,0.00,WUHU21623XXSP,2013-11-12 06:56:00,
2013-11-12 01:01:00,48.6,44.2,30.17,North,0,0.0,0.0,85,0.00,,,0.00,WUHU21623XXSP,2013-11-12 07:01:00,
2013-11-12 01:06:00,48.4,44.0,30.17,North,0,0.0,0.0,85,0.00,,,0.00,WUHU21623XXSP,2013-11-12 07:06:00,
2013-11-12 01:11:00,48.2,44.0,30.18,North,0,0.0,0.0,85,0.00,,,0.00,WUHU21623XXSP,2013-11-12 07:11:00,
2013-11-12 01:16:00,48.2,43.9,30.17,North,0,0.0,0.0,85,0.00,,,0.00,WUHU21623XXSP,2013-11-12 07:16:00,
2013-11-12 01:21:00,48.0,43.7,30.18,North,0,0.0,0.0,85,0.00,,,0.00,WUHU21623XXSP,2013-11-12 07:21:00,
2013-11-12 01:26:00,48.0,43.7,30.18,North,0,0.0,0.0,85,0.00,,,0.00,WUHU21623XXSP,2013-11-12 07:26:00,
2013-11-12 01:31:00,48.0,43.7,30.18,North,0,0.0,0.0,85,0.00,,,0.00,WUHU21623XXSP,2013-11-12 07:31:00,
2013-11-12 01:36:00,47.8,43.5,30.17,North,0,0.0,0.0,85,0.00,,,0.00,WUHU21623XXSP,2013-11-12 07:36:00,
2013-11-12 01:41:00,47.8,43.5,30.17,North,0,0.0,0.0,85,0.00,,,0.00,WUHU21623XXSP,2013-11-12 07:41:00,
2013-11-12 01:46:00,47.8,43.5,30.17,North,0,0.0,0.0,85,0.00,,,0.00,WUHU21623XXSP,2013-11-12 07:46:00,
2013-11-12 01:51:00,47.7,43.7,30.17,North,0,0.0,0.0,86,0.00,,,0.00,WUHU21623XXSP,2013-11-12 07:51:00,
2013-11-12 01:56:00,47.5,43.5,30.17,North,0,0.0,0.0,86,0.00,,,0.00,WUHU21623XXSP,2013-11-12 07:56:00,
2013-11-12 02:01:00,47.5,43.5,30.18,North,0,0.0,0.0,86,0.00,,,0.00,WUHU21623XXSP,2013-11-12 08:01:00,
2013-11-12 02:06:00,47.5,43.5,30.17,North,0,0.0,0.0,86,0.00,,,0.00,WUHU21623XXSP,2013-11-12 08:06:00,
2013-11-12 02:11:00,47.3,43.3,30.17,North,0,0.0,0.0,86,0.00,,,0.00,WUHU21623XXSP,2013-11-12 08:11:00,
2013-11-12 02:16:00,47.3,43.3,30.17,North,0,0.0,0.0,86,0.00,,,0.00,WUHU21623XXSP,2013-11-12 08:16:00,
2013-11-12 02:21:00,47.1,43.3,30.18,North,0,0.0,0.0,86,0.00,,,0.00,WUHU21623XXSP,2013-11-12 08:21:00,
2013-11-12 02:26:00,47.1,43.2,30.18,North,0,0.0,0.0,86,0.00,,,0.00,WUHU21623XXSP,2013-11-12 08:26:00,
2013-11-12 02:31:00,47.1,43.2,30.18,North,0,0.0,0.0,86,0.00,,,0.00,WUHU21623XXSP,2013-11-12 08:31:00,
2013-11-12 02:36:00,47.1,43.2,30.18,North,0,0.0,0.0,86,0.00,,,0.00,WUHU21623XXSP,2013-11-12 08:36:00,
2013-11-12 02:41:00,47.1,43.2,30.18,North,0,0.0,0.0,86,0.00,,,0.00,WUHU21623XXSP,2013-11-12 08:41:00,
2013-11-12 02:46:00,47.1,43.2,30.18,North,0,0.0,0.0,86,0.00,,,0.00,WUHU21623XXSP,2013-11-12 08:46:00,
2013-11-12 02:51:00,47.1,43.2,30.18,North,0,0.0,0.0,86,0.00,,,0.00,WUHU21623XXSP,2013-11-12 08:51:00,
2013-11-12 02:56:00,47.1,43.2,30.18,North,0,0.0,0.0,86,0.00,,,0.00,WUHU21623XXSP,2013-11-12 08:56:00,
2013-11-12 03:01:00,46.9,43.0,30.18,North,0,0.0,0.0,86,0.00,,,0.00,WUHU21623XXSP,2013-11-12 09:01:00,
2013-11-12 03:06:00,47.1,43.2,30.18,North,0,0.0,0.0,86,0.00,,,0.00,WUHU21623XXSP,2013-11-12 09:06:00,
2013-11-12 03:11:00,47.1,43.2,30.18,North,0,0.0,0.0,86,0.00,,,0.00,WUHU21623XXSP,2013-11-12 09:11:00,
2013-11-12 03:16:00,47.1,43.2,30.17,North,0,0.0,0.0,86,0.00,,,0.00,WUHU21623XXSP,2013-11-12 09:16:00,
2013-11-12 03:21:00,46.9,43.3,30.18,North,0,0.0,0.0,86,0.00,,,0.00,WUHU21623XXSP,2013-11-12 09:21:00,
2013-11-12 03:26:00,46.9,43.3,30.18,North,0,0.0,0.0,87,0.00,,,0.00,WUHU21623XXSP,2013-11-12 09:26:00,
2013-11-12 03:31:00,46.9,43.3,30.18,North,0,0.0,0.0,87,0.00,,,0.00,WUHU21623XXSP,2013-11-12 09:31:00,
2013-11-12 03:36:00,46.9,43.3,30.18,North,0,0.0,0.0,87,0.00,,,0.00,WUHU21623XXSP,2013-11-12 09:36:00,
2013-11-12 03:41:00,46.9,43.3,30.18,North,0,0.0,0.0,87,0.00,,,0.00,WUHU21623XXSP,2013-11-12 09:41:00,
2013-11-12 03:46:00,46.9,43.3,30.18,North,0,0.0,0.0,87,0.00,,,0.00,WUHU21623XXSP,2013-11-12 09:46:00,
2013-11-12 03:51:00,46.8,43.1,30.18,North,0,0.0,0.0,87,0.00,,,0.00,WUHU21623XXSP,2013-11-12 09:51:00,
2013-11-12 03:56:00,46.8,43.1,30.18,North,0,0.0,0.0,87,0.00,,,0.00,WUHU21623XXSP,2013-11-12 09:56:00,
2013-11-12 04:01:00,46.8,43.1,30.18,North,0,0.0,0.0,87,0.00,,,0.00,WUHU21623XXSP,2013-11-12 10:01:00,
2013-11-12 04:06:00,46.8,43.1,30.18,North,0,0.0,0.0,87,0.00,,,0.00,WUHU21623XXSP,2013-11-12 10:06:00,
2013-11-12 04:11:00,46.8,43.1,30.18,North,0,0.0,0.0,87,0.00,,,0.00,WUHU21623XXSP,2013-11-12 10:11:00,
2013-11-12 04:16:00,46.8,43.1,30.17,North,0,0.0,0.0,87,0.00,,,0.00,WUHU21623XXSP,2013-11-12 10:16:00,
2013-11-12 04:21:00,46.8,43.1,30.18,North,0,0.0,0.0,87,0.00,,,0.00,WUHU21623XXSP,2013-11-12 10:21:00,
2013-11-12 04:26:00,46.8,43.3,30.18,North,0,0.0,0.0,87,0.00,,,0.00,WUHU21623XXSP,2013-11-12 10:26:00,
2013-11-12 04:31:00,46.8,43.1,30.18,North,0,0.0,0.0,87,0.00,,,0.00,WUHU21623XXSP,2013-11-12 10:31:00,
2013-11-12 04:36:00,46.9,43.3,30.18,North,0,0.0,0.0,87,0.00,,,0.00,WUHU21623XXSP,2013-11-12 10:36:00,
2013-11-12 04:41:00,46.9,43.3,30.18,North,0,0.0,0.0,87,0.00,,,0.00,WUHU21623XXSP,2013-11-12 10:41:00,
2013-11-12 04:46:00,46.9,43.3,30.18,North,0,0.0,0.0,87,0.00,,,0.00,WUHU21623XXSP,2013-11-12 10:46:00,
2013-11-12 04:51:00,46.9,43.6,30.19,North,0,0.0,0.0,88,0.00,,,0.00,WUHU21623XXSP,2013-11-12 10:51:00,
2013-11-12 04:56:00,46.9,43.6,30.19,North,0,0.0,0.0,88,0.00,,,0.00,WUHU21623XXSP,2013-11-12 10:56:00,
2013-11-12 05:01:00,47.1,43.6,30.19,North,0,0.0,0.0,88,0.00,,,0.00,WUHU21623XXSP,2013-11-12 11:01:00,
2013-11-12 05:06:00,47.1,43.8,30.19,North,0,0.0,0.0,88,0.00,,,0.00,WUHU21623XXSP,2013-11-12 11:06:00,
2013-11-12 05:11:00,47.1,43.8,30.20,North,0,0.0,0.0,88,0.00,,,0.00,WUHU21623XXSP,2013-11-12 11:11:00,
2013-11-12 05:16:00,47.1,43.8,30.20,North,0,0.0,0.0,88,0.00,,,0.00,WUHU21623XXSP,2013-11-12 11:16:00,
2013-11-12 05:21:00,47.1,43.8,30.20,North,0,0.0,0.0,88,0.00,,,0.00,WUHU21623XXSP,2013-11-12 11:21:00,
2013-11-12 05:26:00,47.1,43.8,30.19,North,0,0.0,0.0,88,0.00,,,0.00,WUHU21623XXSP,2013-11-12 11:26:00,
2013-11-12 05:31:00,47.1,43.8,30.19,North,0,0.0,0.0,88,0.00,,,0.00,WUHU21623XXSP,2013-11-12 11:31:00,
2013-11-12 05:36:00,47.3,44.0,30.19,North,0,0.0,0.0,88,0.00,,,0.00,WUHU21623XXSP,2013-11-12 11:36:00,
2013-11-12 05:41:00,47.3,44.0,30.19,North,0,0.0,0.0,88,0.00,,,0.00,WUHU21623XXSP,2013-11-12 11:41:00,
2013-11-12 05:46:00,47.5,44.1,30.19,North,0,0.0,0.0,88,0.00,,,0.00,WUHU21623XXSP,2013-11-12 11:46:00,
2013-11-12 05:51:00,47.7,44.3,30.19,North,0,0.0,0.0,88,0.00,,,0.00,WUHU21623XXSP,2013-11-12 11:51:00,
2013-11-12 05:56:00,47.7,44.3,30.19,North,0,0.0,0.0,88,0.00,,,0.00,WUHU21623XXSP,2013-11-12 11:56:00,
2013-11-12 06:01:00,47.8,44.5,30.20,North,0,0.0,0.0,88,0.00,,,0.00,WUHU21623XXSP,2013-11-12 12:01:00,
2013-11-12 06:06:00,48.0,44.5,30.20,North,0,0.0,0.0,89,0.00,,,0.00,WUHU21623XXSP,2013-11-12 12:06:00,
2013-11-12 06:11:00,48.0,45.0,30.20,North,0,0.0,0.0,89,0.00,,,0.00,WUHU21623XXSP,2013-11-12 12:11:00,
2013-11-12 06:16:00,48.0,45.0,30.20,North,0,0.0,0.0,89,0.00,,,0.00,WUHU21623XXSP,2013-11-12 12:16:00,
2013-11-12 06:21:00,48.2,44.9,30.20,North,0,0.0,0.0,88,0.00,,,0.00,WUHU21623XXSP,2013-11-12 12:21:00,
2013-11-12 06:26:00,48.4,45.3,30.20,North,0,0.0,0.0,89,0.00,,,0.00,WUHU21623XXSP,2013-11-12 12:26:00,
2013-11-12 06:31:00,48.6,45.2,30.20,North,0,0.0,0.0,88,0.00,,,0.00,WUHU21623XXSP,2013-11-12 12:31:00,
2013-11-12 06:36:00,48.7,45.2,30.21,North,0,0.0,0.0,88,0.00,,,0.00,WUHU21623XXSP,2013-11-12 12:36:00,
2013-11-12 06:41:00,48.7,45.3,30.21,North,0,0.0,0.0,88,0.00,,,0.00,WUHU21623XXSP,2013-11-12 12:41:00,
2013-11-12 06:46:00,49.1,45.7,30.21,North,0,0.0,0.0,88,0.00,,,0.00,WUHU21623XXSP,2013-11-12 12:46:00,
2013-11-12 06:51:00,49.3,45.8,30.21,North,0,0.0,0.0,88,0.00,,,0.00,WUHU21623XXSP,2013-11-12 12:51:00,
2013-11-12 06:56:00,49.5,46.0,30.21,North,0,0.0,0.0,88,0.00,,,0.00,WUHU21623XXSP,2013-11-12 12:56:00,
2013-11-12 07:01:00,49.6,46.2,30.22,North,0,0.0,0.0,88,0.00,,,0.00,WUHU21623XXSP,2013-11-12 13:01:00,
2013-11-12 07:06:00,49.8,46.3,30.22,North,0,0.0,0.0,88,0.00,,,0.00,WUHU21623XXSP,2013-11-12 13:06:00,
2013-11-12 07:11:00,49.8,46.3,30.23,North,0,0.0,0.0,88,0.00,,,0.00,WUHU21623XXSP,2013-11-12 13:11:00,
2013-11-12 07:16:00,50.4,46.7,30.23,North,0,0.0,0.0,88,0.00,,,0.00,WUHU21623XXSP,2013-11-12 13:16:00,
2013-11-12 07:21:00,50.5,47.0,30.23,North,0,0.0,0.0,88,0.00,,,0.00,WUHU21623XXSP,2013-11-12 13:21:00,
2013-11-12 07:26:00,50.7,47.2,30.23,North,0,0.0,0.0,88,0.00,,,0.00,WUHU21623XXSP,2013-11-12 13:26:00,
2013-11-12 07:31:00,51.3,47.5,30.23,North,0,0.0,0.0,87,0.00,,,0.00,WUHU21623XXSP,2013-11-12 13:31:00,
2013-11-12 07:36:00,51.4,47.6,30.23,North,0,0.0,0.0,87,0.00,,,0.00,WUHU21623XXSP,2013-11-12 13:36:00,
2013-11-12 07:41:00,51.6,47.8,30.23,North,0,0.0,0.0,87,0.00,,,0.00,WUHU21623XXSP,2013-11-12 13:41:00,
2013-11-12 07:46:00,52.0,48.2,30.23,North,0,0.0,0.0,87,0.00,,,0.00,WUHU21623XXSP,2013-11-12 13:46:00,
2013-11-12 07:51:00,52.3,48.2,30.24,North,0,0.0,0.0,86,0.00,,,0.00,WUHU21623XXSP,2013-11-12 13:51:00,
2013-11-12 07:56:00,52.5,48.4,30.24,North,0,0.0,0.0,86,0.00,,,0.00,WUHU21623XXSP,2013-11-12 13:56:00,
2013-11-12 08:01:00,53.2,49.1,30.24,North,0,0.0,0.0,86,0.00,,,0.00,WUHU21623XXSP,2013-11-12 14:01:00,
2013-11-12 08:06:00,53.8,49.4,30.24,North,0,0.0,0.0,85,0.00,,,0.00,WUHU21623XXSP,2013-11-12 14:06:00,
2013-11-12 08:11:00,54.3,49.5,30.24,North,0,0.0,0.0,84,0.00,,,0.00,WUHU21623XXSP,2013-11-12 14:11:00,
2013-11-12 08:16:00,55.2,49.7,30.24,North,0,0.0,0.0,82,0.00,,,0.00,WUHU21623XXSP,2013-11-12 14:16:00,
2013-11-12 08:21:00,55.9,50.5,30.24,North,0,0.0,0.0,82,0.00,,,0.00,WUHU21623XXSP,2013-11-12 14:21:00,
2013-11-12 08:26:00,56.5,50.4,30.25,North,0,0.0,0.0,80,0.00,,,0.00,WUHU21623XXSP,2013-11-12 14:26:00,
2013-11-12 08:31:00,57.0,50.9,30.25,North,0,0.0,0.0,80,0.00,,,0.00,WUHU21623XXSP,2013-11-12 14:31:00,
2013-11-12 08:36:00,57.6,51.1,30.25,North,0,0.0,0.0,79,0.00,,,0.00,WUHU21623XXSP,2013-11-12 14:36:00,
2013-11-12 08:41:00,57.7,50.9,30.25,North,0,0.0,0.0,78,0.00,,,0.00,WUHU21623XXSP,2013-11-12 14:41:00,
2013-11-12 08:46:00,58.5,50.5,30.25,North,0,0.0,0.0,75,0.00,,,0.00,WUHU21623XXSP,2013-11-12 14:46:00,
2013-11-12 08:51:00,58.8,50.9,30.25,North,0,0.0,0.0,75,0.00,,,0.00,WUHU21623XXSP,2013-11-12 14:51:00,
2013-11-12 08:56:00,59.4,51.1,30.25,North,0,0.0,0.0,74,0.00,,,0.00,WUHU21623XXSP,2013-11-12 14:56:00,
2013-11-12 09:01:00,60.1,51.4,30.25,North,0,0.0,0.0,73,0.00,,,0.00,WUHU21623XXSP,2013-11-12 15:01:00,
2013-11-12 09:06:00,60.4,51.4,30.25,North,0,0.0,0.0,72,0.00,,,0.00,WUHU21623XXSP,2013-11-12 15:06:00,
2013-11-12 09:11:00,60.8,51.4,30.24,North,0,0.0,0.0,71,0.00,,,0.00,WUHU21623XXSP,2013-11-12 15:11:00,
2013-11-12 09:16:00,61.5,51.7,30.25,North,0,0.0,0.0,70,0.00,,,0.00,WUHU21623XXSP,2013-11-12 15:16:00,
2013-11-12 09:21:00,61.9,51.2,30.25,North,0,0.0,0.0,68,0.00,,,0.00,WUHU21623XXSP,2013-11-12 15:21:00,
2013-11-12 09:26:00,62.4,51.7,30.25,North,0,0.0,0.0,68,0.00,,,0.00,WUHU21623XXSP,2013-11-12 15:26:00,
2013-11-12 09:31:00,62.8,52.0,30.24,North,0,0.0,0.0,68,0.00,,,0.00,WUHU21623XXSP,2013-11-12 15:31:00,
2013-11-12 09:36:00,63.0,52.2,30.24,North,0,0.0,0.0,68,0.00,,,0.00,WUHU21623XXSP,2013-11-12 15:36:00,
2013-11-12 09:41:00,63.3,52.1,30.25,North,0,0.0,0.0,67,0.00,,,0.00,WUHU21623XXSP,2013-11-12 15:41:00,
2013-11-12 09:46:00,63.7,51.7,30.25,North,0,0.0,0.0,65,0.00,,,0.00,WUHU21623XXSP,2013-11-12 15:46:00,
2013-11-12 09:51:00,64.2,51.7,30.25,North,0,0.0,0.0,64,0.00,,,0.00,WUHU21623XXSP,2013-11-12 15:51:00,
2013-11-12 09:56:00,64.4,51.5,30.25,North,0,0.0,0.0,63,0.00,,,0.00,WUHU21623XXSP,2013-11-12 15:56:00,
2013-11-12 10:01:00,64.9,51.6,30.25,North,0,0.0,0.0,62,0.00,,,0.00,WUHU21623XXSP,2013-11-12 16:01:00,
2013-11-12 10:06:00,65.1,51.1,30.25,North,0,0.0,0.0,61,0.00,,,0.00,WUHU21623XXSP,2013-11-12 16:06:00,
2013-11-12 10:11:00,65.5,51.3,30.25,North,0,0.0,0.0,60,0.00,,,0.00,WUHU21623XXSP,2013-11-12 16:11:00,
2013-11-12 10:16:00,66.0,51.8,30.24,North,0,0.0,0.0,60,0.00,,,0.00,WUHU21623XXSP,2013-11-12 16:16:00,
2013-11-12 10:21:00,66.0,51.3,30.24,North,0,0.0,0.0,59,0.00,,,0.00,WUHU21623XXSP,2013-11-12 16:21:00,
2013-11-12 10:26:00,66.4,52.1,30.24,North,0,0.0,0.0,60,0.00,,,0.00,WUHU21623XXSP,2013-11-12 16:26:00,
2013-11-12 10:31:00,66.7,52.5,30.24,North,0,0.0,0.0,60,0.00,,,0.00,WUHU21623XXSP,2013-11-12 16:31:00,
2013-11-12 10:36:00,66.9,52.1,30.24,North,0,0.0,0.0,59,0.00,,,0.00,WUHU21623XXSP,2013-11-12 16:36:00,
2013-11-12 10:41:00,67.3,52.5,30.23,North,0,0.0,0.0,59,0.00,,,0.00,WUHU21623XXSP,2013-11-12 16:41:00,
2013-11-12 10:46:00,67.8,52.8,30.23,North,0,0.0,0.0,58,0.00,,,0.00,WUHU21623XXSP,2013-11-12 16:46:00,
2013-11-12 10:51:00,67.8,52.0,30.23,North,0,0.0,0.0,57,0.00,,,0.00,WUHU21623XXSP,2013-11-12 16:51:00,
2013-11-12 10:56:00,68.2,52.0,30.23,North,0,0.0,0.0,57,0.11,,,0.11,WUHU21623XXSP,2013-11-12 16:56:00,
2013-11-12 11:01:00,68.5,51.7,30.23,North,0,0.0,0.0,55,0.13,,,0.13,WUHU21623XXSP,2013-11-12 17:01:00,
2013-11-12 11:06:00,68.7,51.9,30.23,North,0,0.0,0.0,55,0.21,,,0.21,WUHU21623XXSP,2013-11-12 17:06:00,
2013-11-12 11:11:00,68.9,52.5,30.23,North,0,0.0,0.0,56,0.21,,,0.21,WUHU21623XXSP,2013-11-12 17:11:00,
2013-11-12 11:16:00,69.3,52.9,30.22,North,0,0.0,0.0,56,0.23,,,0.23,WUHU21623XXSP,2013-11-12 17:16:00,
2013-11-12 11:21:00,69.4,52.5,30.22,North,0,0.0,0.0,55,0.23,,,0.23,WUHU21623XXSP,2013-11-12 17:21:00,
2013-11-12 11:26:00,69.6,52.7,30.22,North,0,0.0,0.0,55,0.27,,,0.27,WUHU21623XXSP,2013-11-12 17:26:00,
2013-11-12 11:31:00,69.6,52.7,30.22,North,0,0.0,0.0,55,0.43,,,0.43,WUHU21623XXSP,2013-11-12 17:31:00,
2013-11-12 11:36:00,69.6,52.7,30.21,North,0,0.0,0.0,55,0.43,,,0.43,WUHU21623XXSP,2013-11-12 17:36:00,
2013-11-12 11:41:00,69.6,52.7,30.21,North,0,0.0,0.0,55,0.45,,,0.45,WUHU21623XXSP,2013-11-12 17:41:00,
2013-11-12 11:46:00,69.8,52.9,30.21,North,0,0.0,0.0,55,0.45,,,0.45,WUHU21623XXSP,2013-11-12 17:46:00,
2013-11-12 11:51:00,70.0,53.0,30.21,North,0,0.0,0.0,55,0.45,,,0.45,WUHU21623XXSP,2013-11-12 17:51:00,
2013-11-12 11:56:00,70.0,53.0,30.21,North,0,0.0,0.0,55,0.34,,,0.47,WUHU21623XXSP,2013-11-12 17:56:00,
2013-11-12 12:01:00,70.3,53.9,30.21,North,0,0.0,0.0,56,0.32,,,0.51,WUHU21623XXSP,2013-11-12 18:01:00,
2013-11-12 12:06:00,70.5,53.9,30.21,North,0,0.0,0.0,56,0.33,,,0.54,WUHU21623XXSP,2013-11-12 18:06:00,
2013-11-12 12:11:00,70.5,53.0,30.21,North,0,0.0,0.0,54,0.33,,,0.54,WUHU21623XXSP,2013-11-12 18:11:00,
2013-11-12 12:16:00,70.5,53.0,30.20,North,0,0.0,0.0,54,0.41,,,0.64,WUHU21623XXSP,2013-11-12 18:16:00,
2013-11-12 12:21:00,70.5,53.0,30.19,North,0,0.0,0.0,54,0.59,,,0.86,WUHU21623XXSP,2013-11-12 18:21:00,
2013-11-12 12:26:00,70.5,53.0,30.19,North,0,0.0,0.0,54,0.63,,,0.90,WUHU21623XXSP,2013-11-12 18:26:00,
2013-11-12 12:31:00,70.5,52.5,30.19,North,0,0.0,0.0,53,0.47,,,0.90,WUHU21623XXSP,2013-11-12 18:31:00,
2013-11-12 12:36:00,70.5,52.5,30.20,North,0,0.0,0.0,53,0.45,,,0.90,WUHU21623XXSP,2013-11-12 18:36:00,
2013-11-12 12:41:00,70.3,53.0,30.20,North,0,0.0,0.0,54,0.66,,,1.11,WUHU21623XXSP,2013-11-12 18:41:00,
2013-11-12 12:46:00,70.3,52.9,30.20,North,0,0.0,0.0,55,0.66,,,1.11,WUHU21623XXSP,2013-11-12 18:46:00,
2013-11-12 12:51:00,70.5,53.5,30.20,North,0,0.0,0.0,55,0.66,,,1.11,WUHU21623XXSP,2013-11-12 18:51:00,
2013-11-12 12:56:00,70.5,53.5,30.20,North,0,0.0,0.0,55,0.62,,,1.11,WUHU21623XXSP,2013-11-12 18:56:00,
2013-11-12 13:01:00,70.5,53.5,30.20,North,0,0.0,0.0,55,0.62,,,1.13,WUHU21623XXSP,2013-11-12 19:01:00,
2013-11-12 13:06:00,70.7,53.7,30.20,North,0,0.0,0.0,55,0.61,,,1.15,WUHU21623XXSP,2013-11-12 19:06:00,
2013-11-12 13:11:00,70.5,53.5,30.20,North,0,0.0,0.0,55,0.59,,,1.15,WUHU21623XXSP,2013-11-12 19:11:00,
2013-11-12 13:16:00,70.9,53.7,30.19,North,0,0.0,0.0,54,0.31,,,1.17,WUHU21623XXSP,2013-11-12 19:16:00,
2013-11-12 13:21:00,70.9,53.3,30.19,North,0,0.0,0.0,54,0.29,,,1.19,WUHU21623XXSP,2013-11-12 19:21:00,
2013-11-12 13:26:00,70.9,53.3,30.19,North,0,0.0,0.0,54,0.39,,,1.29,WUHU21623XXSP,2013-11-12 19:26:00,
2013-11-12 13:31:00,70.9,52.8,30.19,North,0,0.0,0.0,53,0.47,,,1.37,WUHU21623XXSP,2013-11-12 19:31:00,
2013-11-12 13:36:00,70.7,53.2,30.19,North,0,0.0,0.0,53,0.45,,,1.37,WUHU21623XXSP,2013-11-12 19:36:00,
2013-11-12 13:41:00,70.7,53.0,30.19,North,0,0.0,0.0,53,0.26,,,1.37,WUHU21623XXSP,2013-11-12 19:41:00,
2013-11-12 13:46:00,70.7,53.2,30.19,North,0,0.0,0.0,54,0.36,,,1.47,WUHU21623XXSP,2013-11-12 19:46:00,
2013-11-12 13:51:00,70.9,53.3,30.19,North,0,0.0,0.0,54,0.57,,,1.68,WUHU21623XXSP,2013-11-12 19:51:00,
2013-11-12 13:56:00,70.9,53.3,30.19,North,0,0.0,0.0,54,0.57,,,1.70,WUHU21623XXSP,2013-11-12 19:56:00,
2013-11-12 14:01:00,71.2,53.7,30.19,North,0,0.0,0.0,54,0.61,,,1.74,WUHU21623XXSP,2013-11-12 20:01:00,
2013-11-12 14:06:00,71.2,53.7,30.19,North,0,0.0,0.0,54,0.59,,,1.74,WUHU21623XXSP,2013-11-12 20:06:00,
2013-11-12 14:11:00,71.2,53.2,30.19,North,0,0.0,0.0,53,0.59,,,1.74,WUHU21623XXSP,2013-11-12 20:11:00,
2013-11-12 14:16:00,71.4,53.3,30.20,North,0,0.0,0.0,53,0.61,,,1.78,WUHU21623XXSP,2013-11-12 20:16:00,
2013-11-12 14:21:00,71.2,53.2,30.20,North,0,0.0,0.0,53,0.59,,,1.78,WUHU21623XXSP,2013-11-12 20:21:00,
2013-11-12 14:26:00,71.2,53.2,30.20,North,0,0.0,0.0,53,0.59,,,1.88,WUHU21623XXSP,2013-11-12 20:26:00,
2013-11-12 14:31:00,70.9,52.8,30.20,North,0,0.0,0.0,53,0.57,,,1.94,WUHU21623XXSP,2013-11-12 20:31:00,
2013-11-12 14:36:00,70.5,53.0,30.21,North,0,0.0,0.0,54,0.67,,,2.04,WUHU21623XXSP,2013-11-12 20:36:00,
2013-11-12 14:41:00,70.5,52.5,30.21,North,0,0.0,0.0,53,0.72,,,2.09,WUHU21623XXSP,2013-11-12 20:41:00,
2013-11-12 14:46:00,70.0,52.5,30.21,North,0,0.0,0.0,54,0.67,,,2.35,WUHU21623XXSP,2013-11-12 20:46:00,
2013-11-12 14:51:00,69.8,52.9,30.22,North,0,0.0,0.0,55,0.77,,,2.47,WUHU21623XXSP,2013-11-12 20:51:00,
2013-11-12 14:56:00,69.4,52.5,30.22,North,0,0.0,0.0,55,0.79,,,2.53,WUHU21623XXSP,2013-11-12 20:56:00,
2013-11-12 15:01:00,69.1,52.4,30.22,North,0,0.0,0.0,55,0.92,,,2.66,WUHU21623XXSP,2013-11-12 21:01:00,
2013-11-12 15:06:00,68.7,52.0,30.23,North,0,0.0,0.0,55,1.18,,,2.92,WUHU21623XXSP,2013-11-12 21:06:00,
2013-11-12 15:11:00,68.5,52.2,30.23,North,0,0.0,0.0,56,1.34,,,3.12,WUHU21623XXSP,2013-11-12 21:11:00,
2013-11-12 15:16:00,67.8,52.0,30.23,North,0,0.0,0.0,57,1.75,,,3.53,WUHU21623XXSP,2013-11-12 21:16:00,
2013-11-12 15:21:00,67.5,52.1,30.23,North,0,0.0,0.0,58,1.75,,,3.63,WUHU21623XXSP,2013-11-12 21:21:00,
2013-11-12 15:26:00,66.9,52.0,30.24,North,0,0.0,0.0,59,2.00,,,3.88,WUHU21623XXSP,2013-11-12 21:26:00,
2013-11-12 15:31:00,66.0,51.7,30.24,North,0,0.0,0.0,59,2.35,,,4.37,WUHU21623XXSP,2013-11-12 21:31:00,
2013-11-12 15:36:00,65.1,51.4,30.25,North,0,0.0,0.0,60,2.41,,,4.47,WUHU21623XXSP,2013-11-12 21:36:00,
2013-11-12 15:41:00,64.2,50.4,30.25,North,0,0.0,0.0,61,3.05,,,5.16,WUHU21623XXSP,2013-11-12 21:41:00,
2013-11-12 15:46:00,63.7,50.3,30.26,North,0,0.0,0.0,61,2.82,,,5.25,WUHU21623XXSP,2013-11-12 21:46:00,
2013-11-12 15:51:00,63.1,49.9,30.26,North,0,0.0,0.0,62,2.80,,,5.29,WUHU21623XXSP,2013-11-12 21:51:00,
2013-11-12 15:56:00,62.2,49.5,30.26,North,0,0.0,0.0,63,3.05,,,5.71,WUHU21623XXSP,2013-11-12 21:56:00,
2013-11-12 16:01:00,61.5,49.2,30.26,North,0,0.0,0.0,63,2.84,,,5.76,WUHU21623XXSP,2013-11-12 22:01:00,
2013-11-12 16:06:00,61.2,48.9,30.26,North,0,0.0,0.0,64,2.74,,,5.86,WUHU21623XXSP,2013-11-12 22:06:00,
2013-11-12 16:11:00,60.4,48.4,30.26,North,0,0.0,0.0,65,2.55,,,6.04,WUHU21623XXSP,2013-11-12 22:11:00,
2013-11-12 16:16:00,59.9,48.1,30.26,North,0,0.0,0.0,65,2.57,,,6.20,WUHU21623XXSP,2013-11-12 22:16:00,
2013-11-12 16:21:00,59.5,47.8,30.27,North,0,0.0,0.0,65,2.32,,,6.20,WUHU21623XXSP,2013-11-12 22:21:00,
2013-11-12 16:26:00,59.2,47.8,30.27,North,0,0.0,0.0,66,2.08,,,6.37,WUHU21623XXSP,2013-11-12 22:26:00,
2013-11-12 16:31:00,58.8,47.9,30.27,North,0,0.0,0.0,67,2.08,,,6.45,WUHU21623XXSP,2013-11-12 22:31:00,
2013-11-12 16:36:00,58.6,47.7,30.27,North,0,0.0,0.0,67,1.29,,,6.45,WUHU21623XXSP,2013-11-12 22:36:00,
2013-11-12 16:41:00,58.3,47.3,30.27,North,0,0.0,0.0,67,1.22,,,6.47,WUHU21623XXSP,2013-11-12 22:41:00,
2013-11-12 16:46:00,57.9,47.2,30.28,North,0,0.0,0.0,68,1.20,,,6.47,WUHU21623XXSP,2013-11-12 22:46:00,
2013-11-12 16:51:00,57.7,47.2,30.28,North,0,0.0,0.0,68,1.10,,,6.47,WUHU21623XXSP,2013-11-12 22:51:00,
2013-11-12 16:56:00,57.4,47.0,30.28,North,0,0.0,0.0,67,0.76,,,6.47,WUHU21623XXSP,2013-11-12 22:56:00,
2013-11-12 17:01:00,57.0,46.5,30.29,North,0,0.0,0.0,67,0.71,,,6.47,WUHU21623XXSP,2013-11-12 23:01:00,
2013-11-12 17:06:00,57.0,46.1,30.29,North,0,0.0,0.0,67,0.61,,,6.47,WUHU21623XXSP,2013-11-12 23:06:00,
2013-11-12 17:11:00,56.8,46.0,30.29,North,0,0.0,0.0,68,0.27,,,6.47,WUHU21623XXSP,2013-11-12 23:11:00,
2013-11-12 17:16:00,56.5,46.0,30.30,North,0,0.0,0.0,68,0.39,,,6.59,WUHU21623XXSP,2013-11-12 23:16:00,
2013-11-12 17:21:00,56.1,45.9,30.30,North,0,0.0,0.0,68,0.22,,,6.59,WUHU21623XXSP,2013-11-12 23:21:00,
2013-11-12 17:26:00,55.9,45.5,30.30,North,0,0.0,0.0,68,0.16,,,6.59,WUHU21623XXSP,2013-11-12 23:26:00,
2013-11-12 17:31:00,55.8,45.4,30.30,North,0,0.0,0.0,68,0.14,,,6.59,WUHU21623XXSP,2013-11-12 23:31:00,
2013-11-12 17:36:00,55.4,45.2,30.31,North,0,0.0,0.0,68,0.14,,,6.59,WUHU21623XXSP,2013-11-12 23:36:00,
2013-11-12 17:41:00,55.0,45.1,30.31,North,0,0.0,0.0,69,0.12,,,6.59,WUHU21623XXSP,2013-11-12 23:41:00,
2013-11-12 17:46:00,54.9,44.5,30.32,North,0,0.0,0.0,68,0.12,,,6.59,WUHU21623XXSP,2013-11-12 23:46:00,
2013-11-12 17:51:00,54.5,44.3,30.32,North,0,0.0,0.0,68,0.18,,,6.65,WUHU21623XXSP,2013-11-12 23:51:00,
2013-11-12 17:56:00,54.1,43.8,30.32,North,0,0.0,0.0,68,0.29,,,6.76,WUHU21623XXSP,2013-11-12 23:56:00,
2013-11-12 18:01:00,53.8,43.6,30.32,North,0,0.0,0.0,69,0.29,,,6.76,WUHU21623XXSP,2013-11-13 00:01:00,
2013-11-12 18:06:00,53.4,43.5,30.33,North,0,0.0,0.0,69,0.37,,,6.84,WUHU21623XXSP,2013-11-13 00:06:00,
2013-11-12 18:11:00,53.2,43.3,30.33,North,0,0.0,0.0,69,0.27,,,6.86,WUHU21623XXSP,2013-11-13 00:11:00,
2013-11-12 18:16:00,52.9,43.0,30.34,North,0,0.0,0.0,69,0.29,,,6.88,WUHU21623XXSP,2013-11-13 00:16:00,
2013-11-12 18:21:00,52.7,43.0,30.34,North,0,0.0,0.0,70,0.31,,,6.90,WUHU21623XXSP,2013-11-13 00:21:00,
2013-11-12 18:26:00,52.3,42.9,30.34,North,0,0.0,0.0,70,0.33,,,6.92,WUHU21623XXSP,2013-11-13 00:26:00,
2013-11-12 18:31:00,52.3,42.9,30.34,North,0,0.0,0.0,70,0.33,,,6.92,WUHU21623XXSP,2013-11-13 00:31:00,
2013-11-12 18:36:00,52.2,42.8,30.34,North,0,0.0,0.0,70,0.33,,,6.92,WUHU21623XXSP,2013-11-13 00:36:00,
2013-11-12 18:41:00,52.0,42.9,30.35,North,0,0.0,0.0,71,0.33,,,6.92,WUHU21623XXSP,2013-11-13 00:41:00,
2013-11-12 18:46:00,51.6,42.8,30.35,North,0,0.0,0.0,71,0.29,,,6.92,WUHU21623XXSP,2013-11-13 00:46:00,
2013-11-12 18:51:00,51.6,42.6,30.35,North,0,0.0,0.0,71,0.25,,,6.92,WUHU21623XXSP,2013-11-13 00:51:00,
2013-11-12 18:56:00,51.4,42.4,30.36,North,0,0.0,0.0,71,0.22,,,6.98,WUHU21623XXSP,2013-11-13 00:56:00,
2013-11-12 19:01:00,51.1,41.7,30.36,North,0,0.0,0.0,70,0.22,,,7.06,WUHU21623XXSP,2013-11-13 01:01:00,
2013-11-12 19:06:00,50.9,41.5,30.36,North,0,0.0,0.0,70,0.26,,,7.10,WUHU21623XXSP,2013-11-13 01:06:00,
2013-11-12 19:11:00,50.5,41.4,30.37,North,0,0.0,0.0,70,0.41,,,7.29,WUHU21623XXSP,2013-11-13 01:11:00,
2013-11-12 19:16:00,50.4,41.0,30.37,North,0,0.0,0.0,70,0.43,,,7.33,WUHU21623XXSP,2013-11-13 01:16:00,
2013-11-12 19:21:00,50.2,40.4,30.37,North,0,0.0,0.0,69,0.61,,,7.53,WUHU21623XXSP,2013-11-13 01:21:00,
2013-11-12 19:26:00,49.8,39.7,30.38,North,0,0.0,0.0,68,0.65,,,7.57,WUHU21623XXSP,2013-11-13 01:26:00,
2013-11-12 19:31:00,49.5,39.3,30.38,North,0,0.0,0.0,68,0.81,,,7.73,WUHU21623XXSP,2013-11-13 01:31:00,
2013-11-12 19:36:00,49.3,39.1,30.39,North,0,0.0,0.0,68,0.81,,,7.73,WUHU21623XXSP,2013-11-13 01:36:00,
2013-11-12 19:41:00,48.9,38.4,30.39,North,0,0.0,0.0,67,1.36,,,8.28,WUHU21623XXSP,2013-11-13 01:41:00,
2013-11-12 19:46:00,48.7,38.2,30.39,North,0,0.0,0.0,67,1.49,,,8.41,WUHU21623XXSP,2013-11-13 01:46:00,
2013-11-12 19:51:00,48.4,37.9,30.40,North,0,0.0,0.0,67,1.51,,,8.43,WUHU21623XXSP,2013-11-13 01:51:00,
2013-11-12 19:56:00,48.2,37.9,30.40,North,0,0.0,0.0,67,1.61,,,8.67,WUHU21623XXSP,2013-11-13 01:56:00,
2013-11-12 20:01:00,48.0,37.5,30.40,North,0,0.0,0.0,67,1.69,,,8.75,WUHU21623XXSP,2013-11-13 02:01:00,
2013-11-12 20:06:00,48.0,37.5,30.41,North,0,0.0,0.0,67,1.74,,,9.00,WUHU21623XXSP,2013-11-13 02:06:00,
2013-11-12 20:11:00,47.8,37.4,30.41,North,0,0.0,0.0,67,1.79,,,9.12,WUHU21623XXSP,2013-11-13 02:11:00,
2013-11-12 20:16:00,47.7,37.2,30.41,North,0,0.0,0.0,67,1.61,,,9.14,WUHU21623XXSP,2013-11-13 02:16:00,
2013-11-12 20:21:00,47.5,37.4,30.41,North,0,0.0,0.0,68,1.57,,,9.14,WUHU21623XXSP,2013-11-13 02:21:00,
2013-11-12 20:26:00,47.3,37.3,30.41,North,0,0.0,0.0,68,1.55,,,9.28,WUHU21623XXSP,2013-11-13 02:26:00,
2013-11-12 20:31:00,47.1,37.1,30.41,North,0,0.0,0.0,68,1.57,,,9.30,WUHU21623XXSP,2013-11-13 02:31:00,
2013-11-12 20:36:00,47.1,37.1,30.41,North,0,0.0,0.0,68,1.48,,,9.30,WUHU21623XXSP,2013-11-13 02:36:00,
2013-11-12 20:41:00,46.9,36.9,30.41,North,0,0.0,0.0,68,0.95,,,9.30,WUHU21623XXSP,2013-11-13 02:41:00,
2013-11-12 20:46:00,46.8,36.4,30.41,North,0,0.0,0.0,67,1.00,,,9.43,WUHU21623XXSP,2013-11-13 02:46:00,
2013-11-12 20:51:00,46.6,35.8,30.42,North,0,0.0,0.0,65,0.98,,,9.45,WUHU21623XXSP,2013-11-13 02:51:00,
2013-11-12 20:56:00,46.4,34.8,30.42,North,0,0.0,0.0,64,0.82,,,9.55,WUHU21623XXSP,2013-11-13 02:56:00,
2013-11-12 21:01:00,46.2,34.3,30.42,North,0,0.0,0.0,62,0.69,,,9.55,WUHU21623XXSP,2013-11-13 03:01:00,
2013-11-12 21:06:00,46.2,33.5,30.42,North,0,0.0,0.0,61,0.59,,,9.59,WUHU21623XXSP,2013-11-13 03:06:00,
2013-11-12 21:11:00,46.0,32.9,30.42,North,0,0.0,0.0,60,0.47,,,9.61,WUHU21623XXSP,2013-11-13 03:11:00,
2013-11-12 21:16:00,46.0,32.9,30.42,North,0,0.0,0.0,59,0.47,,,9.61,WUHU21623XXSP,2013-11-13 03:16:00,
2013-11-12 21:21:00,45.7,31.7,30.43,North,0,0.0,0.0,58,0.47,,,9.71,WUHU21623XXSP,2013-11-13 03:21:00,
2013-11-12 21:26:00,45.7,31.3,30.43,North,0,0.0,0.0,57,0.51,,,9.79,WUHU21623XXSP,2013-11-13 03:26:00,
2013-11-12 21:31:00,45.5,31.1,30.42,North,0,0.0,0.0,57,0.55,,,9.85,WUHU21623XXSP,2013-11-13 03:31:00,
2013-11-12 21:36:00,45.3,30.0,30.42,North,0,0.0,0.0,55,0.76,,,10.06,WUHU21623XXSP,2013-11-13 03:36:00,
2013-11-12 21:41:00,45.1,29.4,30.42,North,0,0.0,0.0,54,0.96,,,10.26,WUHU21623XXSP,2013-11-13 03:41:00,
2013-11-12 21:46:00,45.1,29.9,30.43,North,0,0.0,0.0,54,0.81,,,10.26,WUHU21623XXSP,2013-11-13 03:46:00,
2013-11-12 21:51:00,45.0,29.3,30.43,North,0,0.0,0.0,54,0.83,,,10.28,WUHU21623XXSP,2013-11-13 03:51:00,
2013-11-12 21:56:00,44.8,28.2,30.43,North,0,0.0,0.0,52,0.73,,,10.28,WUHU21623XXSP,2013-11-13 03:56:00,
2013-11-12 22:01:00,44.8,28.2,30.43,North,0,0.0,0.0,52,0.80,,,10.39,WUHU21623XXSP,2013-11-13 04:01:00,
2013-11-12 22:06:00,44.6,28.5,30.43,North,0,0.0,0.0,53,0.94,,,10.55,WUHU21623XXSP,2013-11-13 04:06:00,
2013-11-12 22:11:00,44.4,27.9,30.43,North,0,0.0,0.0,52,0.94,,,10.55,WUHU21623XXSP,2013-11-13 04:11:00,
2013-11-12 22:16:00,44.2,27.7,30.43,North,0,0.0,0.0,52,0.84,,,10.55,WUHU21623XXSP,2013-11-13 04:16:00,
2013-11-12 22:21:00,44.2,27.7,30.43,North,0,0.0,0.0,52,0.76,,,10.55,WUHU21623XXSP,2013-11-13 04:21:00,
2013-11-12 22:26:00,44.1,27.5,30.44,North,0,0.0,0.0,52,0.76,,,10.55,WUHU21623XXSP,2013-11-13 04:26:00,
2013-11-12 22:31:00,43.9,27.4,30.44,North,0,0.0,0.0,52,0.90,,,10.75,WUHU21623XXSP,2013-11-13 04:31:00,
2013-11-12 22:36:00,43.7,27.2,30.44,North,0,0.0,0.0,52,0.49,,,10.75,WUHU21623XXSP,2013-11-13 04:36:00,
2013-11-12 22:41:00,43.5,27.0,30.44,North,0,0.0,0.0,52,0.53,,,10.79,WUHU21623XXSP,2013-11-13 04:41:00,
2013-11-12 22:46:00,43.5,27.0,30.43,North,0,0.0,0.0,52,0.51,,,10.79,WUHU21623XXSP,2013-11-13 04:46:00,
2013-11-12 22:51:00,43.3,26.9,30.43,North,0,0.0,0.0,52,0.51,,,10.79,WUHU21623XXSP,2013-11-13 04:51:00,
2013-11-12 22:56:00,43.2,26.7,30.44,North,0,0.0,0.0,52,0.44,,,10.83,WUHU21623XXSP,2013-11-13 04:56:00,
2013-11-12 23:01:00,43.0,26.5,30.43,North,0,0.0,0.0,52,0.44,,,10.83,WUHU21623XXSP,2013-11-13 05:01:00,
2013-11-12 23:06:00,43.0,26.5,30.44,North,0,0.0,0.0,52,0.28,,,10.83,WUHU21623XXSP,2013-11-13 05:06:00,
2013-11-12 23:11:00,42.6,26.2,30.44,North,0,0.0,0.0,53,0.28,,,10.83,WUHU21623XXSP,2013-11-13 05:11:00,
2013-11-12 23:16:00,42.6,26.6,30.44,North,0,0.0,0.0,53,0.30,,,10.85,WUHU21623XXSP,2013-11-13 05:16:00,
2013-11-12 23:21:00,42.4,26.5,30.44,North,0,0.0,0.0,53,0.30,,,10.85,WUHU21623XXSP,2013-11-13 05:21:00,
2013-11-12 23:26:00,42.3,25.8,30.44,North,0,0.0,0.0,52,0.10,,,10.85,WUHU21623XXSP,2013-11-13 05:26:00,
2013-11-12 23:31:00,42.1,26.1,30.44,North,0,0.0,0.0,53,0.10,,,10.85,WUHU21623XXSP,2013-11-13 05:31:00,
2013-11-12 23:36:00,41.9,26.1,30.44,North,0,0.0,0.0,53,0.10,,,10.85,WUHU21623XXSP,2013-11-13 05:36:00,
2013-11-12 23:41:00,41.7,25.3,30.44,North,0,0.0,0.0,52,0.06,,,10.85,WUHU21623XXSP,2013-11-13 05:41:00,
2013-11-12 23:46:00,41.7,25.8,30.43,North,0,0.0,0.0,52,0.06,,,10.85,WUHU21623XXSP,2013-11-13 05:46:00,
2013-11-12 23:51:00,41.5,25.3,30.43,North,0,0.0,0.0,52,0.06,,,10.85,WUHU21623XXSP,2013-11-13 05:51:00,
2013-11-12 23:56:00,41.5,25.1,30.43,North,0,0.0,0.0,52,0.02,,,10.85,WUHU21623XXSP,2013-11-13 05:56:00,